Location: Unspecified
(0.0000°N, 0.0000°E)
Time: 02:44:25
(UTC+00:00)

N. Korean satellite - Pass Details

Date: 04 March 2021
Orbit: 451 x 503 km, 97.2° (Epoch: 24 February)

Event Time Altitude Azimuth Distance (km) Brightness Sun altitude
Rises 05:08:32 0° 6° (N) 2,544 10.2 -15.7°
Reaches altitude 10° 05:10:35 10° 3° (N) 1,674 9.2 -15.2°
Maximum altitude 05:14:10 64° 281° (W) 551 6.5 -14.3°
Drops below altitude 10° 05:17:48 10° 199° (SSW) 1,703 9.2 -13.4°
Sets 05:19:54 0° 196° (SSW) 2,592 10.2 -12.9°
